Time,TemperatureF,DewpointF,PressureIn,WindDirection,WindDirectionDegrees,WindSpeedMPH,WindSpeedGustMPH,Humidity,HourlyPrecipIn,Conditions,Clouds,dailyrainin,SoftwareType,DateUTC
2013-04-22 00:02:00,73.6,24.6,29.80,WSW,252,14.0,20.0,16,0.00,,,0.00,WUHU216DAVISVP2,2013-04-22 07:02:00,
2013-04-22 00:07:00,73.8,24.8,29.80,WSW,246,11.0,22.0,16,0.00,,,0.00,WUHU216DAVISVP2,2013-04-22 07:07:00,
2013-04-22 00:12:00,73.5,26.0,29.80,West,274,12.0,23.0,17,0.00,,,0.00,WUHU216DAVISVP2,2013-04-22 07:12:00,
2013-04-22 00:17:00,73.3,24.3,29.80,WSW,254,12.0,23.0,16,0.00,,,0.00,WUHU216DAVISVP2,2013-04-22 07:17:00,
2013-04-22 00:22:00,72.9,25.5,29.80,WSW,254,14.0,23.0,17,0.00,,,0.00,WUHU216DAVISVP2,2013-04-22 07:22:00,
2013-04-22 00:27:00,72.7,25.3,29.80,WNW,286,6.0,23.0,17,0.00,,,0.00,WUHU216DAVISVP2,2013-04-22 07:27:00,
2013-04-22 00:32:00,72.7,25.3,29.80,WSW,246,12.0,17.0,17,0.00,,,0.00,WUHU216DAVISVP2,2013-04-22 07:32:00,
2013-04-22 00:38:00,72.9,25.5,29.80,WSW,255,12.0,17.0,17,0.00,,,0.00,WUHU216DAVISVP2,2013-04-22 07:38:00,
2013-04-22 00:43:00,73.1,25.6,29.80,West,261,8.0,20.0,17,0.00,,,0.00,WUHU216DAVISVP2,2013-04-22 07:43:00,
2013-04-22 00:48:00,72.7,25.3,29.80,West,264,10.0,20.0,17,0.00,,,0.00,WUHU216DAVISVP2,2013-04-22 07:48:00,
2013-04-22 00:53:00,72.5,26.5,29.80,West,267,10.0,20.0,18,0.00,,,0.00,WUHU216DAVISVP2,2013-04-22 07:53:00,
2013-04-22 00:58:00,72.6,25.2,29.80,NNW,327,5.0,20.0,17,0.00,,,0.00,WUHU216DAVISVP2,2013-04-22 07:58:00,
2013-04-22 01:03:00,71.9,26.0,29.80,WSW,249,9.0,18.0,18,0.00,,,0.00,WUHU216DAVISVP2,2013-04-22 08:03:00,
2013-04-22 01:08:00,71.9,26.0,29.80,West,264,2.0,17.0,18,0.00,,,0.00,WUHU216DAVISVP2,2013-04-22 08:08:00,
2013-04-22 01:13:00,70.8,26.4,29.80,WSW,238,7.0,12.0,19,0.00,,,0.00,WUHU216DAVISVP2,2013-04-22 08:13:00,
2013-04-22 01:18:00,70.8,26.4,29.80,WSW,248,6.0,11.0,19,0.00,,,0.00,WUHU216DAVISVP2,2013-04-22 08:18:00,
2013-04-22 01:23:00,70.7,26.4,29.80,WNW,303,1.0,11.0,19,0.00,,,0.00,WUHU216DAVISVP2,2013-04-22 08:23:00,
2013-04-22 01:28:00,70.8,26.4,29.80,WSW,240,9.0,19.0,19,0.00,,,0.00,WUHU216DAVISVP2,2013-04-22 08:28:00,
2013-04-22 01:33:00,71.5,27.0,29.79,SW,229,12.0,19.0,19,0.00,,,0.00,WUHU216DAVISVP2,2013-04-22 08:33:00,
2013-04-22 01:38:00,71.5,27.0,29.79,SW,236,17.0,19.0,19,0.00,,,0.00,WUHU216DAVISVP2,2013-04-22 08:38:00,
2013-04-22 01:44:00,70.7,27.6,29.79,SW,228,12.0,21.0,20,0.00,,,0.00,WUHU216DAVISVP2,2013-04-22 08:44:00,
2013-04-22 01:49:00,70.6,26.3,29.78,SW,232,10.0,21.0,19,0.00,,,0.00,WUHU216DAVISVP2,2013-04-22 08:49:00,
2013-04-22 01:54:00,71.0,26.6,29.79,WSW,245,7.0,21.0,19,0.00,,,0.00,WUHU216DAVISVP2,2013-04-22 08:54:00,
2013-04-22 01:59:00,71.0,26.6,29.78,West,271,6.0,21.0,19,0.00,,,0.00,WUHU216DAVISVP2,2013-04-22 08:59:00,
2013-04-22 02:04:00,71.3,26.9,29.78,WSW,257,8.0,20.0,19,0.00,,,0.00,WUHU216DAVISVP2,2013-04-22 09:04:00,
2013-04-22 02:09:00,71.6,25.8,29.78,WSW,242,4.0,16.0,18,0.00,,,0.00,WUHU216DAVISVP2,2013-04-22 09:09:00,
2013-04-22 02:14:00,72.0,26.1,29.78,WSW,240,7.0,19.0,18,0.00,,,0.00,WUHU216DAVISVP2,2013-04-22 09:14:00,
2013-04-22 02:19:00,71.8,26.0,29.78,West,269,3.0,19.0,18,0.00,,,0.00,WUHU216DAVISVP2,2013-04-22 09:19:00,
2013-04-22 02:24:00,71.3,26.9,29.78,West,272,0.0,19.0,19,0.00,,,0.00,WUHU216DAVISVP2,2013-04-22 09:24:00,
2013-04-22 02:29:00,70.9,26.5,29.78,South,190,2.0,19.0,19,0.00,,,0.00,WUHU216DAVISVP2,2013-04-22 09:29:00,
2013-04-22 02:34:00,70.3,26.0,29.78,South,188,4.0,8.0,19,0.00,,,0.00,WUHU216DAVISVP2,2013-04-22 09:34:00,
2013-04-22 02:39:00,69.6,26.7,29.77,SE,146,6.0,9.0,20,0.00,,,0.00,WUHU216DAVISVP2,2013-04-22 09:39:00,
2013-04-22 02:45:00,69.1,26.3,29.77,SE,145,2.0,9.0,20,0.00,,,0.00,WUHU216DAVISVP2,2013-04-22 09:45:00,
2013-04-22 02:50:00,67.7,25.1,29.77,SE,144,3.0,8.0,20,0.00,,,0.00,WUHU216DAVISVP2,2013-04-22 09:50:00,
2013-04-22 02:55:00,66.8,25.6,29.78,SSE,149,0.0,8.0,21,0.00,,,0.00,WUHU216DAVISVP2,2013-04-22 09:55:00,
2013-04-22 03:00:00,66.0,26.0,29.77,SSE,147,0.0,7.0,22,0.00,,,0.00,WUHU216DAVISVP2,2013-04-22 10:00:00,
2013-04-22 03:05:00,65.2,25.3,29.77,SSE,148,5.0,5.0,22,0.00,,,0.00,WUHU216DAVISVP2,2013-04-22 10:05:00,
2013-04-22 03:10:00,65.1,26.3,29.77,SSE,148,1.0,6.0,23,0.00,,,0.00,WUHU216DAVISVP2,2013-04-22 10:10:00,
2013-04-22 03:15:00,64.8,25.0,29.77,SE,130,4.0,6.0,22,0.00,,,0.00,WUHU216DAVISVP2,2013-04-22 10:15:00,
2013-04-22 03:20:00,64.1,25.4,29.77,NNE,26,0.0,8.0,23,0.00,,,0.00,WUHU216DAVISVP2,2013-04-22 10:20:00,
2013-04-22 03:25:00,63.8,26.2,29.77,NNW,338,9.0,9.0,24,0.00,,,0.00,WUHU216DAVISVP2,2013-04-22 10:25:00,
2013-04-22 03:30:00,62.9,25.4,29.77,NNW,342,6.0,10.0,24,0.00,,,0.00,WUHU216DAVISVP2,2013-04-22 10:30:00,
2013-04-22 03:35:00,62.5,26.0,29.77,North,360,2.0,10.0,25,0.00,,,0.00,WUHU216DAVISVP2,2013-04-22 10:35:00,
2013-04-22 03:40:00,63.7,27.1,29.76,NNE,19,3.0,10.0,25,0.00,,,0.00,WUHU216DAVISVP2,2013-04-22 10:40:00,
2013-04-22 03:46:00,65.0,27.2,29.76,NNE,19,3.0,8.0,24,0.00,,,0.00,WUHU216DAVISVP2,2013-04-22 10:46:00,
2013-04-22 03:51:00,65.8,26.9,29.77,NNE,26,3.0,6.0,23,0.00,,,0.00,WUHU216DAVISVP2,2013-04-22 10:51:00,
2013-04-22 03:56:00,66.1,27.1,29.76,NNE,26,4.0,6.0,23,0.00,,,0.00,WUHU216DAVISVP2,2013-04-22 10:56:00,
2013-04-22 04:01:00,64.6,24.8,29.77,NNE,25,3.0,6.0,22,0.00,,,0.00,WUHU216DAVISVP2,2013-04-22 11:01:00,
2013-04-22 04:06:00,63.0,25.5,29.77,NNE,25,5.0,6.0,24,0.00,,,0.00,WUHU216DAVISVP2,2013-04-22 11:06:00,
2013-04-22 04:11:00,62.0,26.7,29.77,NNE,25,0.0,6.0,26,0.00,,,0.00,WUHU216DAVISVP2,2013-04-22 11:11:00,
2013-04-22 04:16:00,61.1,25.9,29.77,NNE,25,0.0,6.0,26,0.00,,,0.00,WUHU216DAVISVP2,2013-04-22 11:16:00,
2013-04-22 04:21:00,60.3,26.1,29.77,NNE,25,0.0,6.0,27,0.00,,,0.00,WUHU216DAVISVP2,2013-04-22 11:21:00,
2013-04-22 04:26:00,60.3,26.0,29.77,NNE,25,3.0,6.0,27,0.00,,,0.00,WUHU216DAVISVP2,2013-04-22 11:26:00,
2013-04-22 04:31:00,61.4,27.8,29.77,WNW,284,2.0,9.0,28,0.00,,,0.00,WUHU216DAVISVP2,2013-04-22 11:31:00,
2013-04-22 04:36:00,64.7,29.8,29.77,West,273,9.0,11.0,27,0.00,,,0.00,WUHU216DAVISVP2,2013-04-22 11:36:00,
2013-04-22 04:42:00,66.2,29.2,29.77,WSW,254,7.0,11.0,25,0.00,,,0.00,WUHU216DAVISVP2,2013-04-22 11:42:00,
2013-04-22 04:47:00,66.9,29.8,29.77,West,264,4.0,11.0,25,0.00,,,0.00,WUHU216DAVISVP2,2013-04-22 11:47:00,
2013-04-22 04:52:00,66.8,29.7,29.77,WNW,289,1.0,11.0,25,0.00,,,0.00,WUHU216DAVISVP2,2013-04-22 11:52:00,
2013-04-22 04:57:00,67.0,30.0,29.77,WSW,242,6.0,14.0,25,0.00,,,0.00,WUHU216DAVISVP2,2013-04-22 11:57:00,
2013-04-22 05:02:00,67.2,30.2,29.77,WSW,254,10.0,14.0,25,0.00,,,0.00,WUHU216DAVISVP2,2013-04-22 12:02:00,
2013-04-22 05:07:00,66.9,29.9,29.76,WSW,254,5.0,14.0,25,0.00,,,0.00,WUHU216DAVISVP2,2013-04-22 12:07:00,
2013-04-22 05:12:00,67.1,30.0,29.76,West,271,6.0,14.0,25,0.00,,,0.00,WUHU216DAVISVP2,2013-04-22 12:12:00,
2013-04-22 05:17:00,67.1,30.0,29.77,WNW,291,3.0,13.0,25,0.00,,,0.00,WUHU216DAVISVP2,2013-04-22 12:17:00,
2013-04-22 05:22:00,66.9,28.8,29.77,WNW,291,2.0,10.0,24,0.00,,,0.00,WUHU216DAVISVP2,2013-04-22 12:22:00,
2013-04-22 05:27:00,67.0,28.9,29.76,SW,233,1.0,9.0,24,0.00,,,0.00,WUHU216DAVISVP2,2013-04-22 12:27:00,
2013-04-22 05:32:00,67.3,30.1,29.77,WNW,296,6.0,11.0,25,0.00,,,0.00,WUHU216DAVISVP2,2013-04-22 12:32:00,
2013-04-22 05:37:00,68.0,29.7,29.77,NW,317,8.0,16.0,24,0.00,,,0.00,WUHU216DAVISVP2,2013-04-22 12:37:00,
2013-04-22 05:43:00,68.1,29.8,29.77,WNW,292,5.0,16.0,24,0.00,,,0.00,WUHU216DAVISVP2,2013-04-22 12:43:00,
2013-04-22 05:48:00,67.9,30.6,29.77,WNW,296,9.0,16.0,25,0.00,,,0.00,WUHU216DAVISVP2,2013-04-22 12:48:00,
2013-04-22 05:53:00,67.4,30.2,29.77,West,273,5.0,16.0,25,0.00,,,0.00,WUHU216DAVISVP2,2013-04-22 12:53:00,
2013-04-22 05:58:00,66.9,29.8,29.77,West,274,2.0,12.0,25,0.00,,,0.00,WUHU216DAVISVP2,2013-04-22 12:58:00,
2013-04-22 06:03:00,65.9,28.9,29.77,SW,227,7.0,10.0,25,0.00,,,0.00,WUHU216DAVISVP2,2013-04-22 13:03:00,
2013-04-22 06:09:00,65.4,29.5,29.77,West,279,6.0,9.0,26,0.00,,,0.00,WUHU216DAVISVP2,2013-04-22 13:09:00,
2013-04-22 06:14:00,66.5,29.4,29.77,WNW,283,5.0,12.0,25,0.00,,,0.00,WUHU216DAVISVP2,2013-04-22 13:14:00,
2013-04-22 06:19:00,66.6,28.5,29.77,WSW,245,4.0,12.0,24,0.00,,,0.00,WUHU216DAVISVP2,2013-04-22 13:19:00,
2013-04-22 06:24:00,66.1,28.2,29.78,WSW,242,4.0,12.0,24,0.00,,,0.00,WUHU216DAVISVP2,2013-04-22 13:24:00,
2013-04-22 06:29:00,66.0,28.1,29.78,WNW,298,10.0,12.0,24,0.00,,,0.00,WUHU216DAVISVP2,2013-04-22 13:29:00,
2013-04-22 06:34:00,67.5,30.4,29.78,WNW,294,11.0,14.0,25,0.00,,,0.00,WUHU216DAVISVP2,2013-04-22 13:34:00,
2013-04-22 06:39:00,68.0,29.8,29.78,WNW,300,10.0,14.0,24,0.00,,,0.00,WUHU216DAVISVP2,2013-04-22 13:39:00,
2013-04-22 06:44:00,68.8,30.4,29.78,West,260,13.0,21.0,24,0.00,,,0.00,WUHU216DAVISVP2,2013-04-22 13:44:00,
2013-04-22 06:49:00,69.3,30.8,29.79,WNW,291,14.0,21.0,24,0.00,,,0.00,WUHU216DAVISVP2,2013-04-22 13:49:00,
2013-04-22 06:54:00,69.5,30.0,29.79,WNW,287,7.0,21.0,23,0.00,,,0.00,WUHU216DAVISVP2,2013-04-22 13:54:00,
2013-04-22 06:59:00,69.6,30.1,29.79,West,263,7.0,21.0,23,0.00,,,0.00,WUHU216DAVISVP2,2013-04-22 13:59:00,
2013-04-22 07:04:00,70.1,30.5,29.79,WNW,290,7.0,18.0,23,0.00,,,0.00,WUHU216DAVISVP2,2013-04-22 14:04:00,
2013-04-22 07:10:00,69.9,29.2,29.79,WSW,243,4.0,16.0,22,0.00,,,0.00,WUHU216DAVISVP2,2013-04-22 14:10:00,
2013-04-22 07:15:00,70.1,31.5,29.79,West,279,7.0,13.0,24,0.00,,,0.00,WUHU216DAVISVP2,2013-04-22 14:15:00,
2013-04-22 07:20:00,70.7,31.0,29.79,West,273,8.0,13.0,23,0.00,,,0.00,WUHU216DAVISVP2,2013-04-22 14:20:00,
2013-04-22 07:25:00,71.2,30.3,29.79,West,273,11.0,15.0,22,0.00,,,0.00,WUHU216DAVISVP2,2013-04-22 14:25:00,
2013-04-22 07:30:00,71.7,30.7,29.79,SW,236,10.0,15.0,22,0.00,,,0.00,WUHU216DAVISVP2,2013-04-22 14:30:00,
2013-04-22 07:35:00,70.9,30.1,29.80,SW,236,7.0,15.0,22,0.00,,,0.00,WUHU216DAVISVP2,2013-04-22 14:35:00,
2013-04-22 07:40:00,70.4,30.8,29.80,WSW,237,6.0,14.0,23,0.00,,,0.00,WUHU216DAVISVP2,2013-04-22 14:40:00,
2013-04-22 07:45:00,70.5,30.9,29.80,WSW,238,3.0,12.0,23,0.00,,,0.00,WUHU216DAVISVP2,2013-04-22 14:45:00,
2013-04-22 07:50:00,70.8,30.0,29.80,SW,229,4.0,10.0,22,0.00,,,0.00,WUHU216DAVISVP2,2013-04-22 14:50:00,
2013-04-22 07:55:00,71.1,30.3,29.80,SW,229,2.0,10.0,22,0.00,,,0.00,WUHU216DAVISVP2,2013-04-22 14:55:00,
2013-04-22 08:01:00,71.5,30.6,29.80,SW,229,3.0,8.0,22,0.00,,,0.00,WUHU216DAVISVP2,2013-04-22 15:01:00,
2013-04-22 08:06:00,72.1,30.0,29.80,SW,229,3.0,7.0,21,0.00,,,0.00,WUHU216DAVISVP2,2013-04-22 15:06:00,
2013-04-22 08:11:00,72.9,30.6,29.80,SW,225,4.0,6.0,21,0.00,,,0.00,WUHU216DAVISVP2,2013-04-22 15:11:00,
2013-04-22 08:16:00,73.3,31.0,29.80,SW,221,6.0,9.0,21,0.00,,,0.00,WUHU216DAVISVP2,2013-04-22 15:16:00,
2013-04-22 08:21:00,73.7,30.1,29.80,SW,225,6.0,9.0,20,0.00,,,0.00,WUHU216DAVISVP2,2013-04-22 15:21:00,
2013-04-22 08:26:00,73.9,30.3,29.80,SSW,209,7.0,9.0,20,0.00,,,0.00,WUHU216DAVISVP2,2013-04-22 15:26:00,
2013-04-22 08:31:00,74.1,30.4,29.80,SSW,198,3.0,10.0,20,0.00,,,0.00,WUHU216DAVISVP2,2013-04-22 15:31:00,
2013-04-22 08:36:00,74.8,29.8,29.80,SSW,198,0.0,10.0,19,0.00,,,0.00,WUHU216DAVISVP2,2013-04-22 15:36:00,
2013-04-22 08:41:00,75.2,30.1,29.80,ESE,121,3.0,10.0,19,0.00,,,0.00,WUHU216DAVISVP2,2013-04-22 15:41:00,
2013-04-22 08:46:00,74.8,29.8,29.80,ESE,109,5.0,9.0,19,0.00,,,0.00,WUHU216DAVISVP2,2013-04-22 15:46:00,
2013-04-22 08:51:00,74.7,30.9,29.80,East,93,7.0,9.0,20,0.00,,,0.00,WUHU216DAVISVP2,2013-04-22 15:51:00,
2013-04-22 08:56:00,75.0,29.9,29.80,East,92,0.0,9.0,19,0.00,,,0.00,WUHU216DAVISVP2,2013-04-22 15:56:00,
2013-04-22 09:02:00,75.6,30.4,29.80,ESE,111,7.0,8.0,19,0.00,,,0.00,WUHU216DAVISVP2,2013-04-22 16:02:00,
2013-04-22 09:07:00,75.6,30.4,29.80,ESE,111,7.0,7.0,19,0.00,,,0.00,WUHU216DAVISVP2,2013-04-22 16:07:00,
2013-04-22 09:12:00,75.7,30.5,29.80,ESE,120,8.0,8.0,19,0.00,,,0.00,WUHU216DAVISVP2,2013-04-22 16:12:00,
2013-04-22 09:17:00,76.0,30.7,29.80,SE,130,5.0,8.0,19,0.00,,,0.00,WUHU216DAVISVP2,2013-04-22 16:17:00,
2013-04-22 09:22:00,76.2,29.6,29.80,SE,130,5.0,8.0,18,0.00,,,0.00,WUHU216DAVISVP2,2013-04-22 16:22:00,
2013-04-22 09:27:00,76.4,29.7,29.80,SE,136,4.0,8.0,18,0.00,,,0.00,WUHU216DAVISVP2,2013-04-22 16:27:00,
2013-04-22 09:32:00,76.7,30.0,29.80,SE,138,4.0,8.0,18,0.00,,,0.00,WUHU216DAVISVP2,2013-04-22 16:32:00,
2013-04-22 09:37:00,77.0,30.2,29.80,SE,134,6.0,8.0,18,0.00,,,0.00,WUHU216DAVISVP2,2013-04-22 16:37:00,
2013-04-22 09:42:00,77.4,29.1,29.80,SE,141,3.0,8.0,17,0.00,,,0.00,WUHU216DAVISVP2,2013-04-22 16:42:00,
2013-04-22 09:47:00,77.7,29.4,29.80,SE,127,3.0,8.0,17,0.00,,,0.00,WUHU216DAVISVP2,2013-04-22 16:47:00,
2013-04-22 09:52:00,78.1,31.1,29.79,SE,134,6.0,10.0,18,0.00,,,0.00,WUHU216DAVISVP2,2013-04-22 16:52:00,
2013-04-22 09:57:00,78.4,30.0,29.79,SE,142,4.0,12.0,17,0.00,,,0.00,WUHU216DAVISVP2,2013-04-22 16:57:00,
2013-04-22 10:03:00,78.5,30.0,29.79,ESE,102,3.0,12.0,17,0.00,,,0.00,WUHU216DAVISVP2,2013-04-22 17:03:00,
2013-04-22 10:08:00,78.6,30.1,29.79,ESE,117,7.0,12.0,17,0.00,,,0.00,WUHU216DAVISVP2,2013-04-22 17:08:00,
2013-04-22 10:13:00,78.6,30.1,29.80,ESE,105,8.0,12.0,17,0.00,,,0.00,WUHU216DAVISVP2,2013-04-22 17:13:00,
2013-04-22 10:18:00,78.5,30.0,29.79,ESE,121,8.0,10.0,17,0.00,,,0.00,WUHU216DAVISVP2,2013-04-22 17:18:00,
2013-04-22 10:23:00,78.8,30.3,29.79,SE,126,5.0,11.0,17,0.00,,,0.00,WUHU216DAVISVP2,2013-04-22 17:23:00,
2013-04-22 10:28:00,79.7,31.0,29.79,SSE,153,6.0,11.0,17,0.00,,,0.00,WUHU216DAVISVP2,2013-04-22 17:28:00,
2013-04-22 10:33:00,79.9,29.7,29.79,ESE,111,9.0,14.0,16,0.00,,,0.00,WUHU216DAVISVP2,2013-04-22 17:33:00,
2013-04-22 10:38:00,79.8,29.6,29.79,East,82,5.0,14.0,16,0.00,,,0.00,WUHU216DAVISVP2,2013-04-22 17:38:00,
2013-04-22 10:43:00,79.8,29.6,29.79,East,85,5.0,14.0,16,0.00,,,0.00,WUHU216DAVISVP2,2013-04-22 17:43:00,
2013-04-22 10:48:00,79.8,29.6,29.79,ESE,102,4.0,14.0,16,0.00,,,0.00,WUHU216DAVISVP2,2013-04-22 17:48:00,
2013-04-22 10:53:00,80.1,29.8,29.79,ENE,63,9.0,13.0,16,0.00,,,0.00,WUHU216DAVISVP2,2013-04-22 17:53:00,
2013-04-22 10:58:00,80.2,29.9,29.79,East,99,11.0,15.0,16,0.00,,,0.00,WUHU216DAVISVP2,2013-04-22 17:58:00,
2013-04-22 11:04:00,80.9,28.9,29.79,East,86,8.0,15.0,15,0.00,,,0.00,WUHU216DAVISVP2,2013-04-22 18:04:00,
2013-04-22 11:09:00,81.7,27.8,29.79,South,174,12.0,15.0,14,0.00,,,0.00,WUHU216DAVISVP2,2013-04-22 18:09:00,
2013-04-22 11:14:00,81.6,27.7,29.78,SE,143,3.0,15.0,14,0.00,,,0.00,WUHU216DAVISVP2,2013-04-22 18:14:00,
2013-04-22 11:19:00,81.4,27.5,29.78,East,96,6.0,15.0,14,0.00,,,0.00,WUHU216DAVISVP2,2013-04-22 18:19:00,
2013-04-22 11:24:00,81.5,27.6,29.78,East,85,6.0,15.0,14,0.00,,,0.00,WUHU216DAVISVP2,2013-04-22 18:24:00,
2013-04-22 11:29:00,81.9,28.0,29.78,East,93,8.0,15.0,14,0.00,,,0.00,WUHU216DAVISVP2,2013-04-22 18:29:00,
2013-04-22 11:34:00,82.2,28.2,29.77,ESE,121,7.0,15.0,14,0.00,,,0.00,WUHU216DAVISVP2,2013-04-22 18:34:00,
2013-04-22 11:39:00,82.4,28.3,29.77,SSE,153,10.0,13.0,14,0.00,,,0.00,WUHU216DAVISVP2,2013-04-22 18:39:00,
2013-04-22 11:44:00,82.7,26.7,29.77,SE,127,7.0,13.0,13,0.00,,,0.00,WUHU216DAVISVP2,2013-04-22 18:44:00,
2013-04-22 11:49:00,83.0,26.9,29.77,SE,143,3.0,12.0,13,0.00,,,0.00,WUHU216DAVISVP2,2013-04-22 18:49:00,
2013-04-22 11:54:00,83.4,27.3,29.76,SE,139,8.0,12.0,13,0.00,,,0.00,WUHU216DAVISVP2,2013-04-22 18:54:00,
2013-04-22 11:59:00,83.4,25.3,29.76,ESE,117,5.0,11.0,12,0.00,,,0.00,WUHU216DAVISVP2,2013-04-22 18:59:00,
2013-04-22 12:05:00,83.2,25.1,29.76,East,88,6.0,14.0,12,0.00,,,0.00,WUHU216DAVISVP2,2013-04-22 19:05:00,
2013-04-22 12:10:00,83.0,25.0,29.75,East,90,9.0,14.0,12,0.00,,,0.00,WUHU216DAVISVP2,2013-04-22 19:10:00,
2013-04-22 12:15:00,83.1,25.0,29.75,ESE,102,5.0,14.0,12,0.00,,,0.00,WUHU216DAVISVP2,2013-04-22 19:15:00,
2013-04-22 12:20:00,83.4,25.4,29.75,SE,126,8.0,14.0,12,0.00,,,0.00,WUHU216DAVISVP2,2013-04-22 19:20:00,
2013-04-22 12:25:00,83.5,23.4,29.75,ESE,112,9.0,14.0,11,0.00,,,0.00,WUHU216DAVISVP2,2013-04-22 19:25:00,
2013-04-22 12:30:00,83.8,23.4,29.74,ESE,120,9.0,14.0,11,0.00,,,0.00,WUHU216DAVISVP2,2013-04-22 19:30:00,
2013-04-22 12:35:00,83.4,23.1,29.74,ESE,122,4.0,14.0,11,0.00,,,0.00,WUHU216DAVISVP2,2013-04-22 19:35:00,
2013-04-22 12:40:00,83.7,23.4,29.74,ESE,104,4.0,12.0,11,0.00,,,0.00,WUHU216DAVISVP2,2013-04-22 19:40:00,
2013-04-22 12:45:00,84.0,23.6,29.73,East,90,6.0,18.0,11,0.00,,,0.00,WUHU216DAVISVP2,2013-04-22 19:45:00,
2013-04-22 12:50:00,84.3,24.0,29.73,ESE,120,8.0,18.0,11,0.00,,,0.00,WUHU216DAVISVP2,2013-04-22 19:50:00,
2013-04-22 12:55:00,84.5,24.2,29.73,SSE,153,4.0,18.0,11,0.00,,,0.00,WUHU216DAVISVP2,2013-04-22 19:55:00,
2013-04-22 13:00:00,84.5,21.6,29.72,ESE,113,8.0,18.0,10,0.00,,,0.00,WUHU216DAVISVP2,2013-04-22 20:00:00,
2013-04-22 13:06:00,84.4,23.9,29.72,ENE,65,0.0,13.0,11,0.00,,,0.00,WUHU216DAVISVP2,2013-04-22 20:06:00,
2013-04-22 13:11:00,84.3,23.8,29.72,South,184,4.0,15.0,11,0.00,,,0.00,WUHU216DAVISVP2,2013-04-22 20:11:00,
2013-04-22 13:16:00,84.7,24.1,29.72,SE,146,12.0,16.0,11,0.00,,,0.00,WUHU216DAVISVP2,2013-04-22 20:16:00,
2013-04-22 13:21:00,84.8,24.2,29.71,East,93,6.0,16.0,11,0.00,,,0.00,WUHU216DAVISVP2,2013-04-22 20:21:00,
2013-04-22 13:26:00,85.7,22.6,29.71,SSW,198,8.0,16.0,10,0.00,,,0.00,WUHU216DAVISVP2,2013-04-22 20:26:00,
2013-04-22 13:31:00,85.5,22.4,29.71,East,100,6.0,16.0,10,0.00,,,0.00,WUHU216DAVISVP2,2013-04-22 20:31:00,
2013-04-22 13:36:00,85.9,22.7,29.71,South,188,10.0,15.0,10,0.00,,,0.00,WUHU216DAVISVP2,2013-04-22 20:36:00,
2013-04-22 13:41:00,85.7,22.8,29.70,SSE,151,8.0,15.0,10,0.00,,,0.00,WUHU216DAVISVP2,2013-04-22 20:41:00,
2013-04-22 13:46:00,85.9,25.3,29.70,SSW,194,8.0,16.0,11,0.00,,,0.00,WUHU216DAVISVP2,2013-04-22 20:46:00,
2013-04-22 13:51:00,85.9,25.0,29.70,South,178,9.0,16.0,11,0.00,,,0.00,WUHU216DAVISVP2,2013-04-22 20:51:00,
2013-04-22 13:56:00,86.0,25.1,29.70,SSW,196,12.0,19.0,11,0.00,,,0.00,WUHU216DAVISVP2,2013-04-22 20:56:00,
2013-04-22 14:02:00,86.1,25.2,29.69,SW,215,11.0,19.0,11,0.00,,,0.00,WUHU216DAVISVP2,2013-04-22 21:02:00,
2013-04-22 14:07:00,86.3,25.4,29.69,SW,223,12.0,19.0,11,0.00,,,0.00,WUHU216DAVISVP2,2013-04-22 21:07:00,
2013-04-22 14:12:00,86.4,25.7,29.69,SSW,198,7.0,19.0,11,0.00,,,0.00,WUHU216DAVISVP2,2013-04-22 21:12:00,
2013-04-22 14:17:00,86.5,25.7,29.69,SW,215,15.0,18.0,11,0.00,,,0.00,WUHU216DAVISVP2,2013-04-22 21:17:00,
2013-04-22 14:22:00,86.4,25.7,29.69,South,187,11.0,18.0,11,0.00,,,0.00,WUHU216DAVISVP2,2013-04-22 21:22:00,
2013-04-22 14:27:00,86.4,25.4,29.68,SSW,208,6.0,18.0,11,0.00,,,0.00,WUHU216DAVISVP2,2013-04-22 21:27:00,
2013-04-22 14:32:00,86.0,25.1,29.68,South,179,12.0,18.0,11,0.00,,,0.00,WUHU216DAVISVP2,2013-04-22 21:32:00,
2013-04-22 14:37:00,86.6,27.8,29.68,South,182,10.0,18.0,12,0.00,,,0.00,WUHU216DAVISVP2,2013-04-22 21:37:00,
2013-04-22 14:42:00,86.4,27.6,29.68,South,186,11.0,19.0,12,0.00,,,0.00,WUHU216DAVISVP2,2013-04-22 21:42:00,
2013-04-22 14:47:00,86.4,27.6,29.67,SSW,198,15.0,26.0,12,0.00,,,0.00,WUHU216DAVISVP2,2013-04-22 21:47:00,
2013-04-22 14:52:00,86.5,31.6,29.67,SW,225,12.0,26.0,14,0.00,,,0.00,WUHU216DAVISVP2,2013-04-22 21:52:00,
2013-04-22 14:57:00,86.4,31.5,29.67,SW,228,15.0,26.0,14,0.00,,,0.00,WUHU216DAVISVP2,2013-04-22 21:57:00,
2013-04-22 15:03:00,86.7,31.7,29.67,SW,226,16.0,26.0,14,0.00,,,0.00,WUHU216DAVISVP2,2013-04-22 22:03:00,
2013-04-22 15:08:00,85.8,31.0,29.66,SW,231,9.0,24.0,14,0.00,,,0.00,WUHU216DAVISVP2,2013-04-22 22:08:00,
2013-04-22 15:13:00,86.6,31.6,29.66,WSW,250,10.0,25.0,14,0.00,,,0.00,WUHU216DAVISVP2,2013-04-22 22:13:00,
2013-04-22 15:18:00,86.0,31.2,29.66,SW,218,12.0,25.0,14,0.00,,,0.00,WUHU216DAVISVP2,2013-04-22 22:18:00,
2013-04-22 15:23:00,86.2,31.4,29.66,SSW,206,16.0,25.0,14,0.00,,,0.00,WUHU216DAVISVP2,2013-04-22 22:23:00,
2013-04-22 15:28:00,86.1,31.3,29.65,SW,221,15.0,25.0,14,0.00,,,0.00,WUHU216DAVISVP2,2013-04-22 22:28:00,
2013-04-22 15:33:00,86.8,31.9,29.65,WSW,240,18.0,22.0,14,0.00,,,0.00,WUHU216DAVISVP2,2013-04-22 22:33:00,
2013-04-22 15:38:00,86.3,31.4,29.65,SW,227,23.0,23.0,14,0.00,,,0.00,WUHU216DAVISVP2,2013-04-22 22:38:00,
2013-04-22 15:43:00,85.7,30.9,29.65,WSW,240,17.0,25.0,14,0.00,,,0.00,WUHU216DAVISVP2,2013-04-22 22:43:00,
2013-04-22 15:48:00,85.7,30.9,29.64,WSW,252,16.0,25.0,14,0.00,,,0.00,WUHU216DAVISVP2,2013-04-22 22:48:00,
2013-04-22 15:53:00,85.6,30.9,29.64,SW,232,27.0,30.0,14,0.00,,,0.00,WUHU216DAVISVP2,2013-04-22 22:53:00,
2013-04-22 15:58:00,84.7,30.1,29.64,SW,228,20.0,30.0,14,0.00,,,0.00,WUHU216DAVISVP2,2013-04-22 22:58:00,
2013-04-22 16:03:00,84.9,30.3,29.64,West,261,15.0,30.0,14,0.00,,,0.00,WUHU216DAVISVP2,2013-04-22 23:03:00,
2013-04-22 16:08:00,84.5,28.1,29.64,SW,229,22.0,30.0,13,0.00,,,0.00,WUHU216DAVISVP2,2013-04-22 23:08:00,
2013-04-22 16:14:00,84.6,30.1,29.64,WSW,238,18.0,29.0,14,0.00,,,0.00,WUHU216DAVISVP2,2013-04-22 23:14:00,
2013-04-22 16:19:00,84.5,30.0,29.64,SW,234,20.0,29.0,14,0.00,,,0.00,WUHU216DAVISVP2,2013-04-22 23:19:00,
2013-04-22 16:24:00,83.9,29.5,29.64,SW,236,17.0,29.0,14,0.00,,,0.00,WUHU216DAVISVP2,2013-04-22 23:24:00,
2013-04-22 16:29:00,83.9,31.2,29.63,South,185,24.0,29.0,15,0.00,,,0.00,WUHU216DAVISVP2,2013-04-22 23:29:00,
2013-04-22 16:34:00,83.9,29.5,29.63,SW,227,12.0,29.0,14,0.00,,,0.00,WUHU216DAVISVP2,2013-04-22 23:34:00,
2013-04-22 16:39:00,83.7,29.3,29.63,SW,219,22.0,30.0,14,0.00,,,0.00,WUHU216DAVISVP2,2013-04-22 23:39:00,
2013-04-22 16:44:00,83.9,29.5,29.63,SW,223,23.0,30.0,14,0.00,,,0.00,WUHU216DAVISVP2,2013-04-22 23:44:00,
2013-04-22 16:49:00,83.6,29.3,29.63,SSW,211,15.0,30.0,14,0.00,,,0.00,WUHU216DAVISVP2,2013-04-22 23:49:00,
2013-04-22 16:54:00,83.5,29.2,29.63,SW,227,14.0,30.0,14,0.00,,,0.00,WUHU216DAVISVP2,2013-04-22 23:54:00,
2013-04-22 16:59:00,83.5,29.2,29.63,SW,228,21.0,30.0,14,0.00,,,0.00,WUHU216DAVISVP2,2013-04-22 23:59:00,
2013-04-22 17:04:00,83.8,29.4,29.63,SSW,209,14.0,29.0,14,0.00,,,0.00,WUHU216DAVISVP2,2013-04-23 00:04:00,
2013-04-22 17:10:00,83.7,27.5,29.63,SW,219,18.0,29.0,13,0.00,,,0.00,WUHU216DAVISVP2,2013-04-23 00:10:00,
2013-04-22 17:15:00,83.7,27.6,29.63,SW,218,18.0,25.0,13,0.00,,,0.00,WUHU216DAVISVP2,2013-04-23 00:15:00,
2013-04-22 17:20:00,83.1,28.9,29.63,SW,236,15.0,26.0,14,0.00,,,0.00,WUHU216DAVISVP2,2013-04-23 00:20:00,
2013-04-22 17:25:00,82.9,28.8,29.63,SW,219,7.0,26.0,14,0.00,,,0.00,WUHU216DAVISVP2,2013-04-23 00:25:00,
2013-04-22 17:30:00,82.8,28.7,29.63,SW,236,19.0,27.0,14,0.00,,,0.00,WUHU216DAVISVP2,2013-04-23 00:30:00,
2013-04-22 17:35:00,82.0,28.1,29.63,WSW,246,22.0,27.0,14,0.00,,,0.00,WUHU216DAVISVP2,2013-04-23 00:35:00,
2013-04-22 17:40:00,82.0,28.1,29.62,WSW,242,11.0,29.0,14,0.00,,,0.00,WUHU216DAVISVP2,2013-04-23 00:40:00,
2013-04-22 17:45:00,81.7,27.8,29.62,WSW,247,16.0,29.0,14,0.00,,,0.00,WUHU216DAVISVP2,2013-04-23 00:45:00,
2013-04-22 17:50:00,81.3,29.2,29.62,SW,229,15.0,29.0,15,0.00,,,0.00,WUHU216DAVISVP2,2013-04-23 00:50:00,
2013-04-22 17:55:00,81.2,29.1,29.62,SW,225,22.0,29.0,15,0.00,,,0.00,WUHU216DAVISVP2,2013-04-23 00:55:00,
2013-04-22 18:00:00,80.9,28.9,29.62,SW,223,21.0,29.0,15,0.00,,,0.00,WUHU216DAVISVP2,2013-04-23 01:00:00,
2013-04-22 18:05:00,80.2,29.9,29.62,SW,225,26.0,36.0,16,0.00,,,0.00,WUHU216DAVISVP2,2013-04-23 01:05:00,
2013-04-22 18:11:00,79.9,29.7,29.63,WSW,240,24.0,36.0,16,0.00,,,0.00,WUHU216DAVISVP2,2013-04-23 01:11:00,
2013-04-22 18:16:00,79.8,29.6,29.63,SW,223,20.0,36.0,16,0.00,,,0.00,WUHU216DAVISVP2,2013-04-23 01:16:00,
2013-04-22 18:21:00,79.6,27.8,29.63,SW,225,21.0,36.0,15,0.00,,,0.00,WUHU216DAVISVP2,2013-04-23 01:21:00,
2013-04-22 18:26:00,79.6,29.4,29.63,WSW,245,12.0,36.0,16,0.00,,,0.00,WUHU216DAVISVP2,2013-04-23 01:26:00,
2013-04-22 18:31:00,79.5,29.3,29.63,SW,231,13.0,36.0,16,0.00,,,0.00,WUHU216DAVISVP2,2013-04-23 01:31:00,
2013-04-22 18:36:00,79.3,27.6,29.63,WSW,241,10.0,36.0,15,0.00,,,0.00,WUHU216DAVISVP2,2013-04-23 01:36:00,
2013-04-22 18:41:00,79.1,27.5,29.63,SW,232,15.0,26.0,15,0.00,,,0.00,WUHU216DAVISVP2,2013-04-23 01:41:00,
2013-04-22 18:46:00,78.9,27.3,29.63,SW,227,24.0,26.0,15,0.00,,,0.00,WUHU216DAVISVP2,2013-04-23 01:46:00,
2013-04-22 18:51:00,78.7,25.5,29.63,SSW,209,17.0,28.0,14,0.00,,,0.00,WUHU216DAVISVP2,2013-04-23 01:51:00,
2013-04-22 18:56:00,78.4,26.9,29.63,SW,226,11.0,28.0,15,0.00,,,0.00,WUHU216DAVISVP2,2013-04-23 01:56:00,
2013-04-22 19:01:00,78.2,26.7,29.63,SW,220,14.0,28.0,15,0.00,,,0.00,WUHU216DAVISVP2,2013-04-23 02:01:00,
2013-04-22 19:06:00,78.0,26.6,29.63,SSW,210,9.0,28.0,15,0.00,,,0.00,WUHU216DAVISVP2,2013-04-23 02:06:00,
2013-04-22 19:11:00,77.8,24.8,29.63,SW,230,10.0,26.0,14,0.00,,,0.00,WUHU216DAVISVP2,2013-04-23 02:11:00,
2013-04-22 19:17:00,77.5,24.5,29.63,SW,222,9.0,22.0,14,0.00,,,0.00,WUHU216DAVISVP2,2013-04-23 02:17:00,
2013-04-22 19:22:00,77.3,24.4,29.63,WSW,249,4.0,16.0,14,0.00,,,0.00,WUHU216DAVISVP2,2013-04-23 02:22:00,
2013-04-22 19:27:00,77.2,20.5,29.63,West,264,3.0,16.0,12,0.00,,,0.00,WUHU216DAVISVP2,2013-04-23 02:27:00,
2013-04-22 19:32:00,77.0,20.3,29.64,West,259,11.0,11.0,12,0.00,,,0.00,WUHU216DAVISVP2,2013-04-23 02:32:00,
2013-04-22 19:37:00,76.8,20.1,29.63,SW,223,10.0,11.0,12,0.00,,,0.00,WUHU216DAVISVP2,2013-04-23 02:37:00,
2013-04-22 19:42:00,76.3,19.8,29.63,SW,236,12.0,13.0,12,0.00,,,0.00,WUHU216DAVISVP2,2013-04-23 02:42:00,
2013-04-22 19:47:00,76.1,17.5,29.63,WSW,244,16.0,20.0,11,0.00,,,0.00,WUHU216DAVISVP2,2013-04-23 02:47:00,
2013-04-22 19:52:00,76.0,19.5,29.63,SW,232,21.0,22.0,12,0.00,,,0.00,WUHU216DAVISVP2,2013-04-23 02:52:00,
2013-04-22 19:57:00,76.4,17.7,29.64,WSW,248,18.0,25.0,11,0.00,,,0.00,WUHU216DAVISVP2,2013-04-23 02:57:00,
2013-04-22 20:02:00,76.4,15.5,29.63,WSW,244,17.0,27.0,10,0.00,,,0.00,WUHU216DAVISVP2,2013-04-23 03:02:00,
2013-04-22 20:07:00,76.2,17.6,29.64,West,275,16.0,27.0,11,0.00,,,0.00,WUHU216DAVISVP2,2013-04-23 03:07:00,
2013-04-22 20:12:00,75.7,19.3,29.63,WSW,246,20.0,27.0,12,0.00,,,0.00,WUHU216DAVISVP2,2013-04-23 03:12:00,
2013-04-22 20:17:00,75.6,19.2,29.64,West,265,20.0,27.0,12,0.00,,,0.00,WUHU216DAVISVP2,2013-04-23 03:17:00,
2013-04-22 20:23:00,76.2,17.6,29.63,WSW,254,20.0,31.0,11,0.00,,,0.00,WUHU216DAVISVP2,2013-04-23 03:23:00,
2013-04-22 20:28:00,76.2,17.6,29.63,West,259,15.0,31.0,11,0.00,,,0.00,WUHU216DAVISVP2,2013-04-23 03:28:00,
2013-04-22 20:33:00,76.1,15.3,29.64,WSW,255,18.0,31.0,10,0.00,,,0.00,WUHU216DAVISVP2,2013-04-23 03:33:00,
2013-04-22 20:38:00,76.3,15.4,29.64,WSW,240,21.0,31.0,10,0.00,,,0.00,WUHU216DAVISVP2,2013-04-23 03:38:00,
2013-04-22 20:43:00,76.3,15.4,29.64,WSW,238,20.0,29.0,10,0.00,,,0.00,WUHU216DAVISVP2,2013-04-23 03:43:00,
2013-04-22 20:48:00,76.3,15.4,29.64,WSW,248,17.0,29.0,10,0.00,,,0.00,WUHU216DAVISVP2,2013-04-23 03:48:00,
2013-04-22 20:53:00,76.2,15.3,29.64,WSW,242,13.0,29.0,10,0.00,,,0.00,WUHU216DAVISVP2,2013-04-23 03:53:00,
2013-04-22 20:58:00,76.4,17.7,29.63,WSW,247,15.0,30.0,11,0.00,,,0.00,WUHU216DAVISVP2,2013-04-23 03:58:00,
2013-04-22 21:03:00,76.3,15.7,29.64,SW,236,22.0,30.0,10,0.00,,,0.00,WUHU216DAVISVP2,2013-04-23 04:03:00,
2013-04-22 21:08:00,75.9,17.6,29.63,WSW,258,17.0,30.0,11,0.00,,,0.00,WUHU216DAVISVP2,2013-04-23 04:08:00,
2013-04-22 21:13:00,76.0,17.6,29.64,West,259,16.0,30.0,11,0.00,,,0.00,WUHU216DAVISVP2,2013-04-23 04:13:00,
2013-04-22 21:18:00,75.7,17.4,29.64,WSW,246,17.0,27.0,11,0.00,,,0.00,WUHU216DAVISVP2,2013-04-23 04:18:00,
2013-04-22 21:23:00,75.6,17.1,29.64,SW,223,8.0,26.0,11,0.00,,,0.00,WUHU216DAVISVP2,2013-04-23 04:23:00,
2013-04-22 21:29:00,75.4,19.1,29.65,WSW,240,5.0,26.0,12,0.00,,,0.00,WUHU216DAVISVP2,2013-04-23 04:29:00,
2013-04-22 21:34:00,74.9,18.7,29.65,WSW,256,7.0,22.0,12,0.00,,,0.00,WUHU216DAVISVP2,2013-04-23 04:34:00,
2013-04-22 21:39:00,74.8,18.6,29.65,West,268,8.0,22.0,12,0.00,,,0.00,WUHU216DAVISVP2,2013-04-23 04:39:00,
2013-04-22 21:44:00,74.7,20.4,29.65,WSW,256,10.0,18.0,13,0.00,,,0.00,WUHU216DAVISVP2,2013-04-23 04:44:00,
2013-04-22 21:49:00,74.7,20.4,29.65,West,259,15.0,21.0,13,0.00,,,0.00,WUHU216DAVISVP2,2013-04-23 04:49:00,
2013-04-22 21:54:00,74.5,22.1,29.65,WNW,282,7.0,21.0,14,0.00,,,0.00,WUHU216DAVISVP2,2013-04-23 04:54:00,
2013-04-22 21:59:00,74.5,22.1,29.65,West,276,7.0,21.0,14,0.00,,,0.00,WUHU216DAVISVP2,2013-04-23 04:59:00,
2013-04-22 22:04:00,74.6,22.1,29.65,West,275,0.0,21.0,14,0.00,,,0.00,WUHU216DAVISVP2,2013-04-23 05:04:00,
2013-04-22 22:09:00,74.7,22.2,29.65,South,186,2.0,16.0,14,0.00,,,0.00,WUHU216DAVISVP2,2013-04-23 05:09:00,
2013-04-22 22:14:00,74.6,23.8,29.65,WSW,237,5.0,16.0,15,0.00,,,0.00,WUHU216DAVISVP2,2013-04-23 05:14:00,
2013-04-22 22:19:00,74.2,25.1,29.64,West,262,9.0,16.0,16,0.00,,,0.00,WUHU216DAVISVP2,2013-04-23 05:19:00,
2013-04-22 22:24:00,74.3,25.1,29.64,WNW,291,11.0,21.0,16,0.00,,,0.00,WUHU216DAVISVP2,2013-04-23 05:24:00,
2013-04-22 22:30:00,74.4,25.2,29.64,WNW,286,22.0,23.0,16,0.00,,,0.00,WUHU216DAVISVP2,2013-04-23 05:30:00,
2013-04-22 22:35:00,74.6,23.8,29.63,West,274,15.0,25.0,15,0.00,,,0.00,WUHU216DAVISVP2,2013-04-23 05:35:00,
2013-04-22 22:40:00,75.2,20.9,29.63,WNW,300,11.0,29.0,13,0.00,,,0.00,WUHU216DAVISVP2,2013-04-23 05:40:00,
2013-04-22 22:45:00,75.5,21.2,29.63,WNW,301,17.0,29.0,13,0.00,,,0.00,WUHU216DAVISVP2,2013-04-23 05:45:00,
2013-04-22 22:50:00,75.4,21.1,29.63,WNW,290,14.0,29.0,13,0.00,,,0.00,WUHU216DAVISVP2,2013-04-23 05:50:00,
2013-04-22 22:55:00,75.3,22.8,29.62,WNW,285,17.0,34.0,14,0.00,,,0.00,WUHU216DAVISVP2,2013-04-23 05:55:00,
2013-04-22 23:00:00,75.2,22.6,29.63,West,269,19.0,34.0,14,0.00,,,0.00,WUHU216DAVISVP2,2013-04-23 06:00:00,
2013-04-22 23:05:00,75.1,22.5,29.63,West,277,15.0,34.0,14,0.00,,,0.00,WUHU216DAVISVP2,2013-04-23 06:05:00,
2013-04-22 23:10:00,75.2,22.6,29.62,West,269,23.0,34.0,14,0.00,,,0.00,WUHU216DAVISVP2,2013-04-23 06:10:00,
2013-04-22 23:15:00,75.3,22.7,29.63,West,279,9.0,33.0,14,0.00,,,0.00,WUHU216DAVISVP2,2013-04-23 06:15:00,
2013-04-22 23:20:00,75.4,21.0,29.62,WNW,296,23.0,33.0,13,0.00,,,0.00,WUHU216DAVISVP2,2013-04-23 06:20:00,
2013-04-22 23:25:00,75.9,19.4,29.62,West,275,17.0,33.0,12,0.00,,,0.00,WUHU216DAVISVP2,2013-04-23 06:25:00,
2013-04-22 23:30:00,75.9,17.4,29.62,WNW,297,22.0,33.0,11,0.00,,,0.00,WUHU216DAVISVP2,2013-04-23 06:30:00,
2013-04-22 23:36:00,75.7,17.2,29.62,WSW,256,15.0,33.0,11,0.00,,,0.00,WUHU216DAVISVP2,2013-04-23 06:36:00,
2013-04-22 23:41:00,76.4,17.7,29.62,WSW,257,16.0,33.0,11,0.00,,,0.00,WUHU216DAVISVP2,2013-04-23 06:41:00,
2013-04-22 23:46:00,75.9,17.6,29.62,WSW,248,12.0,29.0,11,0.00,,,0.00,WUHU216DAVISVP2,2013-04-23 06:46:00,
2013-04-22 23:51:00,75.3,19.1,29.63,WNW,282,13.0,29.0,12,0.00,,,0.00,WUHU216DAVISVP2,2013-04-23 06:51:00,
2013-04-22 23:56:00,75.5,19.3,29.63,West,271,11.0,34.0,12,0.00,,,0.00,WUHU216DAVISVP2,2013-04-23 06:56:00,